Key West, FL

5:53 PM EDT on July 24, 2017 (GMT -0400)
Key West International

Weather History for KEYW - April, 2014

Change the Weather History Date:

Friday, April 11, 2014

  Actual Average Record
Temperature  
Mean Temperature 75 °F 76 °F  
Max Temperature 80 °F 81 °F 89 °F (1933)
Min Temperature 70 °F 71 °F 59 °F (1987)
Degree Days  
Heating Degree Days 0 0  
Month to date heating degree days 0 0  
Since 1 July heating degree days 22 73  
Cooling Degree Days 10 11  
Month to date cooling degree days 125 114  
Year to date cooling degree days 828 724  
Growing Degree Days 25 (Base 50)    
Moisture  
Dew Point 63 °F    
Average Humidity 65    
Maximum Humidity 79    
Minimum Humidity 51    
Precipitation  
Precipitation 0.00 in 0.06 in 1.70 in (1984)
Month to date precipitation 0.47 0.74  
Year to date precipitation 11.85 6.32  
Snow  
Snow 0.00 in - - ()
Month to date snowfall 0.0  
Since 1 July snowfall 0.0  
Snow Depth 0.00 in    
Sea Level Pressure  
Sea Level Pressure 30.15 in    
Wind  
Wind Speed 9 mph (ENE)    
Max Wind Speed 16 mph    
Max Gust Speed 22 mph    
Visibility 10 miles    
Events      
T = Trace of Precipitation, MM = Missing Value Source: NWS Daily Summary

Daily Weather History Graph

Daily Weather History Graph

Search for Another Location

Airport or City:

Trip Planner

Search our weather history database for the weather conditions in past years. The results will help you decide how hot, cold, wet, or windy it might be!

Date:

Astronomy

Apr. 11, 2014 Rise Set
Actual Time 7:08 AM EDT 7:47 PM EDT
Civil Twilight 6:45 AM EDT 8:10 PM EDT
Nautical Twilight 6:18 AM EDT 8:37 PM EDT
Astronomical Twilight 5:51 AM EDT 9:05 PM EDT
Moon 4:46 PM EDT (4/11) 4:41 AM EDT (4/11)
Length of Visible Light 13h 24m
Length of Day
12h 38m
Waxing Gibbous, 87% of the Moon is Illuminated
Apr 11
Waxing Gibbous
Apr 15
Full
Apr 22
Last Quarter
Apr 29
New
May 6
First Quarter

Hourly Weather History & Observations

Time (EDT) Temp. Heat Index Dew Point Humidity Pressure Visibility Wind Dir Wind Speed Gust Speed Precip Events Conditions
12:53 AM 71.1 °F - 59.0 °F 66% 30.20 in 10.0 mi NE 5.8 mph - N/A   Clear
1:53 AM 70.0 °F - 60.1 °F 71% 30.18 in 10.0 mi NE 4.6 mph - N/A   Partly Cloudy
2:53 AM 71.1 °F - 61.0 °F 70% 30.16 in 10.0 mi ENE 5.8 mph - N/A   Overcast
3:53 AM 71.1 °F - 62.1 °F 73% 30.14 in 10.0 mi NE 5.8 mph - N/A   Partly Cloudy
4:53 AM 71.1 °F - 64.0 °F 78% 30.13 in 10.0 mi NE 8.1 mph - N/A   Mostly Cloudy
5:53 AM 72.0 °F - 63.0 °F 73% 30.14 in 10.0 mi ENE 6.9 mph - N/A   Mostly Cloudy
6:53 AM 71.1 °F - 63.0 °F 75% 30.15 in 10.0 mi NE 5.8 mph - N/A   Mostly Cloudy
7:53 AM 73.0 °F - 62.1 °F 68% 30.17 in 10.0 mi East 11.5 mph - N/A   Mostly Cloudy
8:53 AM 75.0 °F - 61.0 °F 62% 30.18 in 10.0 mi East 10.4 mph - N/A   Overcast
9:53 AM 75.9 °F - 61.0 °F 60% 30.19 in 10.0 mi East 11.5 mph - N/A   Mostly Cloudy
10:53 AM 78.1 °F - 62.1 °F 58% 30.20 in 10.0 mi East 15.0 mph - N/A   Partly Cloudy
11:53 AM 79.0 °F - 60.1 °F 52% 30.19 in 10.0 mi East 12.7 mph 19.6 mph N/A   Clear
12:53 PM 80.1 °F 81.1 °F 61.0 °F 52% 30.17 in 10.0 mi East 12.7 mph - N/A   Clear
1:53 PM 78.1 °F - 62.1 °F 58% 30.16 in 10.0 mi East 11.5 mph - N/A   Clear
2:53 PM 80.1 °F 81.5 °F 63.0 °F 56% 30.14 in 10.0 mi East 15.0 mph - N/A   Clear
3:53 PM 79.0 °F - 63.0 °F 58% 30.12 in 10.0 mi East 13.8 mph - N/A   Clear
4:53 PM 78.1 °F - 63.0 °F 60% 30.10 in 10.0 mi East 13.8 mph - N/A   Clear
5:53 PM 78.1 °F - 63.0 °F 60% 30.10 in 10.0 mi East 11.5 mph - N/A   Clear
6:53 PM 75.9 °F - 64.0 °F 67% 30.11 in 10.0 mi East 6.9 mph - N/A   Clear
7:53 PM 75.0 °F - 64.0 °F 69% 30.12 in 10.0 mi ENE 5.8 mph - N/A   Clear
8:53 PM 75.0 °F - 64.9 °F 71% 30.13 in 10.0 mi ENE 5.8 mph - N/A   Clear
9:53 PM 73.9 °F - 64.9 °F 73% 30.14 in 10.0 mi NE 5.8 mph - N/A   Clear
10:53 PM 73.9 °F - 66.0 °F 76% 30.14 in 10.0 mi NE 5.8 mph - N/A   Clear
11:53 PM 73.9 °F - 66.0 °F 76% 30.13 in 10.0 mi NE 4.6 mph - N/A   Clear